{"data":{"norad_id":68529,"intl_designator":"2026-068X","name":"STARLINK-37244","alt_names":[],"object_type":"PAYLOAD","status":"ACTIVE","operator":null,"country":"US","launch_date":"2026-03-30","launch_site_code":"AFETR","launch_vehicle":null,"mission":null,"orbit_class":"UNKNOWN","rcs_meters":null,"size_class":null,"mass_kg":null,"dimensions":null,"purposes":["comms"],"wikipedia_slug":null,"has_3d_model":false,"image_url":null,"decayed_at":null,"tle_current":{"epoch":"2026-09-19T20:06:50.762592Z","epoch_age_seconds":105221,"freshness":"FRESH","line1":"1 68529U 26068X   26262.83808753  .00015965  00000+0  48253-3 0  9992","line2":"2 68529  53.1612 302.9504 0000327  66.1334 293.9703 15.34406719 26739","mean_motion":15.34406719,"eccentricity":3.27e-5,"inclination_deg":53.1612,"raan_deg":302.9504,"arg_perigee_deg":66.1334,"mean_anomaly_deg":293.9703,"bstar":0.00048253,"rev_number":2673,"period_min":93.847347132218,"perigee_km":462.45957517318,"apogee_km":462.90696481884,"semimajor_km":6840.820269996,"source":"CELESTRAK","updated_at":"2026-09-20T09:00:43.907237Z"}}}